{"data":{"norad_id":41923,"intl_designator":"2017-003G","name":"IRIDIUM 114","alt_names":[],"object_type":"PAYLOAD","status":"ACTIVE","operator":null,"country":"US","launch_date":"2017-01-14","launch_site_code":"AFWTR","launch_vehicle":null,"mission":null,"orbit_class":"UNKNOWN","rcs_meters":2.4372,"size_class":null,"mass_kg":null,"dimensions":null,"purposes":["comms"],"wikipedia_slug":null,"has_3d_model":false,"image_url":null,"decayed_at":null,"tle_current":{"epoch":"2026-09-20T04:06:10.758240Z","epoch_age_seconds":43978,"freshness":"FRESH","line1":"1 41923U 17003G   26263.17095785  .00000171  00000+0  53820-4 0  9991","line2":"2 41923  86.3950  48.7212 0002206  90.7072 269.4377 14.34217456506861","mean_motion":14.34217456,"eccentricity":0.0002206,"inclination_deg":86.395,"raan_deg":48.7212,"arg_perigee_deg":90.7072,"mean_anomaly_deg":269.4377,"bstar":5.382e-5,"rev_number":50686,"period_min":100.40318460606,"perigee_km":776.08956165268,"apogee_km":779.24670287704,"semimajor_km":7155.8051322649,"source":"CELESTRAK","updated_at":"2026-09-20T09:00:36.320916Z"}}}